TimeCST,TemperatureF,Dew PointF,Humidity,Sea Level PressureIn,VisibilityMPH,Wind Direction,Wind SpeedMPH,Gust SpeedMPH,PrecipitationIn,Events,Conditions,WindDirDegrees,DateUTC
12:53 AM,39.0,27.0,62,29.60,10.0,WSW,23.0,-,N/A,,Clear,240,2012-12-15 06:53:00
1:53 AM,39.9,26.1,58,29.63,10.0,WSW,20.7,-,N/A,,Clear,240,2012-12-15 07:53:00
2:53 AM,39.0,26.1,60,29.66,10.0,WSW,18.4,-,N/A,,Clear,240,2012-12-15 08:53:00
3:53 AM,39.0,26.1,60,29.70,10.0,West,15.0,-,N/A,,Clear,260,2012-12-15 09:53:00
4:53 AM,36.0,26.1,67,29.69,10.0,West,11.5,-,N/A,,Clear,260,2012-12-15 10:53:00
5:53 AM,32.0,26.1,79,29.74,10.0,South,8.1,-,N/A,,Clear,180,2012-12-15 11:53:00
6:53 AM,30.0,25.0,82,29.77,10.0,SW,11.5,-,N/A,,Clear,220,2012-12-15 12:53:00
7:53 AM,27.0,24.1,89,29.80,10.0,SW,8.1,-,N/A,,Clear,220,2012-12-15 13:53:00
8:53 AM,34.0,26.1,73,29.80,10.0,WSW,10.4,-,N/A,,Clear,250,2012-12-15 14:53:00
9:53 AM,39.9,27.0,60,29.77,10.0,SW,8.1,-,N/A,,Clear,220,2012-12-15 15:53:00
10:53 AM,45.0,28.9,53,29.79,10.0,WSW,13.8,-,N/A,,Clear,240,2012-12-15 16:53:00
11:53 AM,52.0,28.0,40,29.75,10.0,SW,11.5,-,N/A,,Clear,220,2012-12-15 17:53:00
12:53 PM,54.0,27.0,35,29.71,10.0,SW,11.5,-,N/A,,Clear,230,2012-12-15 18:53:00
1:53 PM,54.0,26.1,34,29.68,10.0,West,11.5,-,N/A,,Clear,270,2012-12-15 19:53:00
2:53 PM,57.0,24.1,28,29.66,10.0,West,20.7,-,N/A,,Clear,280,2012-12-15 20:53:00
3:53 PM,57.0,23.0,27,29.65,10.0,WNW,12.7,-,N/A,,Clear,290,2012-12-15 21:53:00
4:53 PM,54.0,21.0,28,29.68,10.0,West,12.7,24.2,N/A,,Clear,260,2012-12-15 22:53:00
5:53 PM,46.0,25.0,44,29.73,10.0,WSW,10.4,-,N/A,,Clear,240,2012-12-15 23:53:00
6:53 PM,39.0,26.1,60,29.76,10.0,SSW,8.1,-,N/A,,Clear,200,2012-12-16 00:53:00
7:53 PM,41.0,26.1,55,29.78,10.0,WSW,13.8,-,N/A,,Clear,240,2012-12-16 01:53:00
8:53 PM,36.0,27.0,70,29.77,10.0,WSW,15.0,-,N/A,,Clear,240,2012-12-16 02:53:00
9:53 PM,39.0,27.0,62,29.75,10.0,West,17.3,-,N/A,,Clear,260,2012-12-16 03:53:00
10:53 PM,37.9,27.0,65,29.74,10.0,WSW,13.8,-,N/A,,Clear,250,2012-12-16 04:53:00
11:53 PM,39.0,27.0,62,29.73,10.0,WSW,15.0,-,N/A,,Clear,240,2012-12-16 05:53:00